This is the latest recevied weather packets stored in our database for station/object AE5EW. If no packets are shown the sender has not sent any weather packets the latest 10 day(s).
| Time | Temp. | Humidity | Pressure | Rain* | Wind** | Luminosity | Snow |
|---|---|---|---|---|---|---|---|
| 1787448456 | 25.56° C | 88% | 1016.3 hPa | 0 mm | - | - | - |
| 1787448152 | 26.11° C | 88% | 1016.2 hPa | 0 mm | - | - | - |
| 1787447851 | 26.11° C | 87% | 1016 hPa | 0 mm | - | - | - |
| 1787447545 | 26.11° C | 88% | 1016 hPa | 0 mm | - | - | - |
| 1787447241 | 26.11° C | 87% | 1015.8 hPa | 0 mm | - | - | - |
| 1787446938 | 26.67° C | 87% | 1015.8 hPa | 0 mm | - | - | - |
| 1787446637 | 26.67° C | 86% | 1015.6 hPa | 0 mm | - | - | - |
| 1787446333 | 26.67° C | 85% | 1015.7 hPa | 0 mm | - | - | - |
| 1787446029 | 26.67° C | 86% | 1015.5 hPa | 0 mm | - | - | - |
| 1787445725 | 27.22° C | 84% | 1015.4 hPa | 0 mm | - | - | - |
| 1787445422 | 27.22° C | 83% | 1015.4 hPa | 0 mm | - | - | - |
| 1787445122 | 27.22° C | 82% | 1015.4 hPa | 0 mm | - | - | - |
| 1787444817 | 27.78° C | 82% | 1015.3 hPa | 0 mm | - | - | - |
| 1787444514 | 27.78° C | 81% | 1015.4 hPa | 0 mm | - | - | - |
| 1787444209 | 28.33° C | 80% | 1015.4 hPa | 0 mm | - | - | - |
| 1787443908 | 28.89° C | 80% | 1015.5 hPa | 0 mm | - | - | - |
| 1787443607 | 29.44° C | 79% | 1015.4 hPa | 0 mm | - | - | - |
| 1787443303 | 30° C | 73% | 1015.3 hPa | 0 mm | - | - | - |
| 1787443002 | 31.11° C | 76% | 1015.2 hPa | 0 mm | - | - | - |
| 1787442698 | 31.67° C | 75% | 1015.2 hPa | 0 mm | - | - | - |
| 1787442395 | 32.22° C | 74% | 1015.1 hPa | 0 mm | - | - | - |
| 1787442094 | 32.22° C | 72% | 1015 hPa | 0 mm | - | - | - |
| 1787441789 | 31.67° C | 67% | 1015.3 hPa | 0 mm | - | - | - |
| 1787441484 | 32.22° C | 66% | 1015.1 hPa | 0 mm | - | - | - |
| 1787441180 | 32.22° C | 65% | 1015.2 hPa | 0 mm | - | - | - |
* Rain latest hour (hover to see other rain measurements)
** Current wind speed in m/s (hover to see current wind gust speed)